Track ORBCOMM FM116 now! 10-day predictions ORBCOMM FM116 is classified as:
1 41189U 15081L 25199.57463086 .00000790 00000-0 20571-3 0 9997 2 41189 47.0027 47.3292 0002217 298.9225 61.1438 14.58266792510235